Weather History for Anaktuvuk Pass, AK

Change the Weather History Date:

Saturday, September 7, 2013

  Actual Average Record
Temperature  
Mean Temperature 39 °F -  
Max Temperature 48 °F 41 °F 57 °F (1997)
Min Temperature 30 °F 29 °F 19 °F (2014)
Degree Days  
Heating Degree Days 26    
Moisture  
Dew Point 27 °F    
Average Humidity 66    
Maximum Humidity 80    
Minimum Humidity 46    
Precipitation  
Precipitation 0.00 in - - ()
Sea Level Pressure  
Sea Level Pressure 29.68 in    
Wind  
Wind Speed 5 mph (NE)    
Max Wind Speed 17 mph    
Max Gust Speed 22 mph    
Visibility 10 miles    
Events      
Averages and records for this station are not official NWS values.
T = Trace of Precipitation, MM = Missing Value Source: NWS Daily Summary

Daily Weather History Graph

Daily Weather History Graph

Search for Another Location

Airport:

Trip Planner

Search our weather history database for the weather conditions in past years. The results will help you decide how hot, cold, wet, or windy it might be!

Date:

Astronomy

Sep. 07, 2013 Rise Set
Actual Time 6:56 AM AKDT 9:10 PM AKDT
Civil Twilight 5:54 AM AKDT 10:11 PM AKDT
Nautical Twilight 4:25 AM AKDT 11:38 PM AKDT
Astronomical Twilight 2:37 AM AKDT 1:32 AM AKDT
Moon 10:57 AM AKDT (9/7) 8:29 PM AKDT (9/7)
Length of Visible Light 16h 17m
Length of Day
14h 14m
Waxing Crescent, 6% of the Moon is Illuminated
Sep 7
Waxing Crescent
Sep 12
First Quarter
Sep 19
Full
Sep 26
Last Quarter
Oct 4
New

Hourly Weather History & Observations

Time (AKDT) Temp. Windchill Dew Point Humidity Pressure Visibility Wind Dir Wind Speed Gust Speed Precip Events Conditions
12:16 AM 35.6 °F - 26.6 °F 70% 29.66 in 10.0 mi Calm Calm - N/A   Clear
12:36 AM 33.8 °F - 26.6 °F 75% 29.66 in 10.0 mi Calm Calm - N/A   Partly Cloudy
12:56 AM 33.8 °F - 24.8 °F 70% 29.65 in 10.0 mi Calm Calm - N/A   Partly Cloudy
1:16 AM 33.8 °F - 24.8 °F 70% 29.65 in 10.0 mi Calm Calm - N/A   Mostly Cloudy
1:36 AM 33.8 °F - 26.6 °F 75% 29.65 in 10.0 mi Calm Calm - N/A   Overcast
1:56 AM 33.8 °F - 26.6 °F 75% 29.65 in 10.0 mi Calm Calm - N/A   Scattered Clouds
2:16 AM 33.8 °F 30.8 °F 24.8 °F 70% 29.65 in 10.0 mi North 3.5 mph - N/A   Clear
2:36 AM 33.8 °F - 26.6 °F 75% 29.65 in 10.0 mi Calm Calm - N/A   Clear
2:56 AM 33.8 °F - 24.8 °F 70% 29.65 in 10.0 mi Calm Calm - N/A   Clear
3:16 AM 33.8 °F - 26.6 °F 75% 29.65 in 10.0 mi Calm Calm - N/A   Clear
3:36 AM 32.0 °F - 24.8 °F 75% 29.64 in 10.0 mi Calm Calm - N/A   Clear
3:56 AM 32.0 °F 28.7 °F 24.8 °F 75% 29.64 in 10.0 mi NNW 3.5 mph - N/A   Clear
4:16 AM 33.8 °F - 24.8 °F 70% 29.64 in 10.0 mi Calm Calm - N/A   Clear
4:36 AM 30.2 °F - 24.8 °F 80% 29.64 in 10.0 mi Calm Calm - N/A   Clear
4:56 AM 30.2 °F - 23.0 °F 75% 29.64 in 10.0 mi Calm Calm - N/A   Clear
5:16 AM 30.2 °F 23.4 °F 24.8 °F 80% 29.64 in 10.0 mi NNE 6.9 mph - N/A   Clear
5:36 AM 30.2 °F 23.4 °F 23.0 °F 75% 29.64 in 10.0 mi NNE 6.9 mph - N/A   Clear
5:56 AM 32.0 °F 26.4 °F 24.8 °F 75% 29.64 in 10.0 mi North 5.8 mph - N/A   Clear
6:16 AM 32.0 °F 26.4 °F 24.8 °F 75% 29.64 in 10.0 mi North 5.8 mph - N/A   Clear
6:36 AM 32.0 °F 27.5 °F 24.8 °F 75% 29.64 in 10.0 mi North 4.6 mph - N/A   Clear
6:56 AM 32.0 °F 26.4 °F 23.0 °F 69% 29.64 in 10.0 mi NNE 5.8 mph - N/A   Clear
7:16 AM 32.0 °F 26.4 °F 23.0 °F 69% 29.64 in 10.0 mi NNE 5.8 mph - N/A   Clear
7:36 AM 32.0 °F 26.4 °F 23.0 °F 69% 29.65 in 10.0 mi North 5.8 mph - N/A   Clear
7:56 AM 33.8 °F 27.7 °F 24.8 °F 70% 29.65 in 10.0 mi North 6.9 mph - N/A   Clear
8:16 AM 33.8 °F 28.6 °F 24.8 °F 70% 29.66 in 10.0 mi North 5.8 mph - N/A   Clear
8:36 AM 33.8 °F 28.6 °F 24.8 °F 70% 29.66 in 10.0 mi North 5.8 mph - N/A   Clear
8:56 AM 35.6 °F 29.9 °F 26.6 °F 70% 29.66 in 10.0 mi North 6.9 mph - N/A   Partly Cloudy
9:16 AM 35.6 °F 30.7 °F 26.6 °F 70% 29.66 in 10.0 mi North 5.8 mph - N/A   Clear
9:36 AM 37.4 °F 32.8 °F 26.6 °F 65% 29.67 in 10.0 mi NNE 5.8 mph - N/A   Clear
9:56 AM 37.4 °F 33.8 °F 26.6 °F 65% 29.67 in 10.0 mi North 4.6 mph - N/A   Clear
10:16 AM 39.2 °F 35.9 °F 28.4 °F 65% 29.67 in 10.0 mi North 4.6 mph - N/A   Clear
10:36 AM 39.2 °F 35.0 °F 28.4 °F 65% 29.67 in 10.0 mi NNE 5.8 mph - N/A   Clear
10:56 AM 41.0 °F 37.1 °F 28.4 °F 61% 29.68 in 10.0 mi NNE 5.8 mph - N/A   Clear
11:16 AM 42.8 °F 38.0 °F 28.4 °F 57% 29.68 in 10.0 mi NE 8.1 mph - N/A   Clear
11:36 AM 42.8 °F 38.6 °F 28.4 °F 57% 29.69 in 10.0 mi NE 6.9 mph - N/A   Clear
11:56 AM 44.6 °F 39.7 °F 28.4 °F 53% 29.69 in 10.0 mi NNE 9.2 mph - N/A   Clear
12:16 PM 44.6 °F 40.2 °F 28.4 °F 53% 29.69 in 10.0 mi ENE 8.1 mph - N/A   Clear
12:36 PM 44.6 °F 39.2 °F 28.4 °F 53% 29.69 in 10.0 mi ENE 10.4 mph - N/A   Clear
12:56 PM 46.4 °F 41.1 °F 28.4 °F 50% 29.69 in 10.0 mi NE 11.5 mph - N/A   Clear
1:16 PM 46.4 °F 41.5 °F 28.4 °F 50% 29.68 in 10.0 mi NE 10.4 mph - N/A   Clear
1:36 PM 46.4 °F 40.7 °F 28.4 °F 50% 29.69 in 10.0 mi NE 12.7 mph - N/A   Clear
1:56 PM 48.2 °F - 28.4 °F 46% 29.69 in 10.0 mi ENE 11.5 mph - N/A   Clear
2:16 PM 48.2 °F - 28.4 °F 46% 29.69 in 10.0 mi NE 13.8 mph - N/A   Clear
2:36 PM 48.2 °F - 28.4 °F 46% 29.69 in 10.0 mi NE 13.8 mph - N/A   Clear
2:56 PM 48.2 °F - 30.2 °F 50% 29.69 in 10.0 mi NE 12.7 mph - N/A   Clear
3:16 PM 48.2 °F - 30.2 °F 50% 29.69 in 10.0 mi NE 13.8 mph - N/A   Clear
3:36 PM 48.2 °F - 30.2 °F 50% 29.69 in 10.0 mi NE 12.7 mph - N/A   Clear
3:56 PM 48.2 °F - 30.2 °F 50% 29.69 in 10.0 mi NNE 13.8 mph 17.3 mph N/A   Clear
4:16 PM 48.2 °F - 30.2 °F 50% 29.69 in 10.0 mi NE 13.8 mph 19.6 mph N/A   Clear
4:36 PM 46.4 °F 40.1 °F 30.2 °F 53% 29.69 in 10.0 mi NE 15.0 mph 19.6 mph N/A   Clear
4:56 PM 46.4 °F 40.4 °F 30.2 °F 53% 29.69 in 10.0 mi NNE 13.8 mph 21.9 mph N/A   Clear
5:16 PM 44.6 °F 37.8 °F 30.2 °F 57% 29.69 in 10.0 mi NE 15.0 mph 21.9 mph N/A   Clear
5:36 PM 44.6 °F 37.2 °F 30.2 °F 57% 29.70 in 10.0 mi NE 17.3 mph 21.9 mph N/A   Clear
5:56 PM 42.8 °F 35.8 °F 30.2 °F 61% 29.70 in 10.0 mi NE 13.8 mph 20.7 mph N/A   Clear
6:16 PM 42.8 °F 35.1 °F 30.2 °F 61% 29.70 in 10.0 mi NE 16.1 mph 19.6 mph N/A   Clear
6:36 PM 41.0 °F 32.8 °F 30.2 °F 65% 29.70 in 10.0 mi NE 16.1 mph 20.7 mph N/A   Clear
6:56 PM 41.0 °F 33.1 °F 30.2 °F 65% 29.71 in 10.0 mi NE 15.0 mph 20.7 mph N/A   Clear
7:16 PM 39.2 °F 31.2 °F 28.4 °F 65% 29.71 in 10.0 mi NE 13.8 mph 20.7 mph N/A   Clear
7:36 PM 39.2 °F 30.8 °F 28.4 °F 65% 29.71 in 10.0 mi NE 15.0 mph 18.4 mph N/A   Clear
7:56 PM 37.4 °F 28.5 °F 28.4 °F 70% 29.70 in 10.0 mi ENE 15.0 mph 19.6 mph N/A   Clear
8:16 PM 37.4 °F 29.3 °F 28.4 °F 70% 29.71 in 10.0 mi NE 12.7 mph - N/A   Clear
8:36 PM 35.6 °F 28.0 °F 28.4 °F 75% 29.71 in 10.0 mi ENE 10.4 mph 17.3 mph N/A   Clear
8:56 PM 35.6 °F 28.0 °F 28.4 °F 75% 29.71 in 10.0 mi NE 10.4 mph - N/A   Clear
9:16 PM 35.6 °F 27.5 °F 26.6 °F 70% 29.71 in 10.0 mi ENE 11.5 mph 16.1 mph N/A   Clear
9:36 PM 33.8 °F 25.3 °F 26.6 °F 75% 29.72 in 10.0 mi ENE 11.5 mph - N/A   Clear
9:56 PM 35.6 °F 29.2 °F 26.6 °F 70% 29.72 in 10.0 mi NE 8.1 mph - N/A   Scattered Clouds
10:16 PM 33.8 °F 26.4 °F 26.6 °F 75% 29.73 in 10.0 mi NE 9.2 mph - N/A   Overcast
10:36 PM 35.6 °F 28.6 °F 28.4 °F 75% 29.73 in 10.0 mi NE 9.2 mph - N/A   Overcast
10:56 PM 35.6 °F 29.2 °F 28.4 °F 75% 29.72 in 10.0 mi NNE 8.1 mph - N/A   Overcast
11:16 PM 35.6 °F 28.6 °F 28.4 °F 75% 29.72 in 10.0 mi NNE 9.2 mph - N/A   Overcast
11:36 PM 35.6 °F 28.6 °F 28.4 °F 75% 29.72 in 10.0 mi NE 9.2 mph - N/A   Overcast
11:56 PM 35.6 °F 28.0 °F 28.4 °F 75% 29.72 in 10.0 mi NE 10.4 mph - N/A   Overcast